User: anonymous   Login
Location: Melbourne
(37.8170°S, 144.9670°E)
Time: 20:46:39
(UTC+10:00)
Language:

Cosmos 962 Rocket - Orbit

View from above orbital plane
View from above orbital plane
View from above satellite
View from above satellite

Ground track
Ground track

The orbit data is extracted from the following two-line orbital elements,

1 10461U 77107B   18114.61607671  .00000113  00000-0  99385-4 0  9996
2 10461  82.9465 142.2203 0033258 359.4742 114.8050 13.76792699 33629
Epoch (UTC): 24 April 2018 14:47:09
Eccentricity: 0.0033258
inclination: 82.9465°
perigee height: 951 km
apogee height: 1000 km
right ascension of ascending node: 142.2203°
argument of perigee: 359.4742°
revolutions per day: 13.76792699
mean anomaly at epoch: 114.8050°
orbit number at epoch: 3362

The dashed part of the orbit path shows where the satellite is in the earth's shadow,  

DLR